Regional Weather Roundup
Issued by NWS Grand Forks, ND

Home | Current Version | Previous Version | Graphics & Text | Print | Product List | Glossary On
Versions: 1 2 3 4 5 6 7 8 9 10 11 12 13 14 15 16 17 18 19 20 21 22 23 24 25 26 27 28 29 30 31 32 33 34 35 36 37 38 39 40 41 42 43 44 45 46 47 48 49 50
000
ASUS43 KFGF 211910
RWRFGF
PRAIRIE TO PINES  WEATHER ROUNDUP
NATIONAL WEATHER SERVICE EASTERN NORTH DAKOTA/GRAND FORKS ND
100 PM CST SUN DEC 21 2014

 **SATELLITE DATA USED TO AUGMENT SKY COVER AT AUTOMATED STATIONS**
 *****  WEATHER ACROSS EASTERN NORTH DAKOTA  *****

CITY           SKY/WX    TMP DP  RH WIND       PRES   REMARKS
GRAND FORKS    CLOUDY    31  29  92 S16       29.63F WCI  20
GRAND FRKS AFB CLOUDY    31  31 100 S14       29.62F WCI  21
GRAND FRKS NWS   N/A     30 N/A N/A S24         N/A  WCI  16
DEVILS LAKE    CLOUDY    27  19  74 SE7       29.53F WCI  19
FARGO          CLOUDY    33  29  85 SE15G24   29.64F FOG     WCI  23
WAHPETON ARPT  CLOUDY    32  30  93 S17       29.64F WCI  21
$$

 ***** WEATHER ACROSS CENTRAL AND WESTERN NORTH DAKOTA  *****

CITY           SKY/WX    TMP DP  RH WIND       PRES   REMARKS
BISMARCK       SUNNY     36  28  73 SE15      29.47F
MINOT          SUNNY     35  30  82 E8        29.43F
JAMESTOWN      FOG       32  29  88 SE14G22   29.54F VSB 3/4 WCI  22
MINOT AFB      SUNNY     30  30 100 E9        29.43F WCI  22
GARRISON         N/A     35  29  78 SE7       29.43F
WILLISTON      CLOUDY    32  27  81 E3        29.37F
DICKINSON      CLOUDY    39  27  62 S9        29.37F
HETTINGER      CLOUDY    40  28  62 SW5       29.41F
$$

 *****  OTHER AIRPORT OBSERVATIONS IN OUR AREA  *****

CITY           SKY/WX    TMP DP  RH WIND       PRES   REMARKS
WALHALLA         N/A     27  27 100 S7        29.59F WCI  19
GRAFTON AIRPOR NOT AVBL
VALLEY CITY AR CLOUDY    30  30 100 SE12      29.58F FOG     WCI  21
CANDO          CLOUDY    27  25  93 SE15      29.53F FOG     WCI  15
CAVALIER APRT  CLOUDY    28  28 100 S15G21    29.60F FOG     WCI  17
GWINNER        PTCLDY    37  34  87 SE10      29.60F
ROLLA          NOT AVBL
 ***** THE ABOVE OBSERVATIONS ARE NON NWS ARE NOT QUALITY
       CONTROLLED AND MAY MIS-REPORT RAIN FOR SNOW...
$$

  *****  WEATHER ACROSS NORTHERN MINNESOTA  *****

CITY           SKY/WX    TMP DP  RH WIND       PRES   REMARKS
FLAG ISLAND    SNOW      28  28 100 SE16      29.66F VSB 1/4 WCI  17
WARROAD        CLOUDY    30  27  86 S9        29.66F FOG     WCI  22
ROSEAU         CLOUDY    32  27  80 S12       29.65F HAZE    WCI  23
HALLOCK        CLOUDY    30  30 100 CALM      29.63F FOG
THF RVR FALLS  CLOUDY    30  28  93 S14       29.65F WCI  20
BAUDETTE       CLOUDY    31  28  89 S8        29.68F WCI  23
WASKISH        CLOUDY    32  30  93 S7        29.69F
CROOKSTON      CLOUDY    30  30 100 S18       29.66F FOG     WCI  18
STEPHEN NDAWN    N/A     30  30 100 S15         N/A  WCI  19
GREENBUSH NDAW   N/A     30  28  93 S1          N/A
$$
  *****  WEATHER ACROSS CENTRAL AND WEST MINNESOTA  *****

CITY           SKY/WX    TMP DP  RH WIND       PRES   REMARKS
FOSSTON        CLOUDY    30  28  93 SE9       29.65F FOG     WCI  22
BEMIDJI        CLOUDY    31  29  94 S12       29.67F FOG     WCI  21
PARK RAPIDS    CLOUDY    31  30  96 SE15      29.67F FOG     WCI  20
ELBOW LAKE     CLOUDY    32  31  98 S17G23    29.65F FOG     WCI  20
WADENA         CLOUDY    30  30 100 SE12      29.67F FOG     WCI  21
DETROIT LAKES  CLOUDY    32  32 100 S20G25    29.65F FOG     WCI  20
MOORHEAD       CLOUDY    34  34 100 S17       29.66F FOG     WCI  23
FERGUS FALLS   CLOUDY    32  30  93 S17       29.68F FOG     WCI  21
MORRIS MN      CLOUDY    34  32  93 S13       29.66F FOG     WCI  25
STAPLES        FOG       30  30 100 SE7       29.69F VSB 1   WCI  23
$$
  *****  WEATHER ELSEWHERE ACROSS MINNESOTA  *****

CITY           SKY/WX    TMP DP  RH WIND       PRES   REMARKS
DULUTH         LGT SNOW  31  29  92 SE10      29.77F FOG     WCI  22
INTRNTL FALLS  CLOUDY    31  28  89 S8        29.72F WCI  23
ELY            CLOUDY    30  28  93 S8        29.77F WCI  23
CLOQUET        CLOUDY    32  30  93 SE6       29.77F FOG
WHEATON        CLOUDY    30  28  93 SE9       29.66F FOG     WCI  22
BRAINERD       CLOUDY    32  32 100 SE8       29.72F FOG     WCI  25
HIBBING        CLOUDY    32  28  85 VRB7      29.75F FOG
ALEXANDRIA     FOG       32  32 100 S10       29.68F VSB 1   WCI  24
SAINT CLOUD    FOG       35  33  92 SE10      29.73F VSB 1/2
MINNEAPOLIS    LGT RAIN  35  34  96 SE10      29.78F FOG
$$

  *****  WEATHER ACROSS SOUTH DAKOTA  *****

CITY           SKY/WX    TMP DP  RH WIND       PRES   REMARKS
SIOUX FALLS    CLOUDY    34  33  96 S15       29.65F FOG     WCI  24
BROOKINGS      NOT AVBL
WATERTOWN      CLOUDY    32  30  92 S16       29.60F FOG     WCI  21
HURON          CLOUDY    32  30  92 SE13G23   29.56F FOG     WCI  22
SISSETON       NOT AVBL
ABERDEEN       CLOUDY    33  30  88 SE14      29.57F FOG     WCI  23
MITCHELL       SUNNY     35  31  85 S18       29.59F WCI  24
PIERRE         SUNNY     32  27  81 SE9       29.46F WCI  24
MOBRIDGE       SUNNY     40  29  64 SE9       29.44F
RAPID CITY     CLOUDY    42  30  62 CALM      29.41F
$$

  *****  SOME WEATHER IN NEARBY STATES *****

CITY           SKY/WX    TMP DP  RH WIND       PRES   REMARKS
GLASGOW MT     MIX PCPN  32  26  78 SE6       29.31F
GREAT FALLS MT MOSUNNY   48  28  46 SW29G39   29.39R
CHEYENNE WY    PTSUNNY   41  25  53 W24G38    29.56F
SCOTTSBLUFF NE CLOUDY    45  30  55 W16G26    29.51F
OMAHA NE       CLOUDY    42  38  85 S21       29.78F
DES MOINES IA  CLOUDY    41  35  79 S15G30    29.87F
DAVENPORT IA   CLOUDY    40  32  73 S18       30.00F
CHICAGO IL     CLOUDY    36  29  75 S13       30.11F
EAU CLAIRE WI  CLOUDY    34  32  92 SE10      29.86F FOG
LA CROSSE WI   CLOUDY    39  34  82 S15       29.90F HAZE
$$

  *****  SOME NATIONAL WEATHER *****

CITY           SKY/WX    TMP DP  RH WIND       PRES   REMARKS
LA GUARDIA NY  PTSUNNY   35  27  72 N10       30.28F
RALEIGH NC     MOSUNNY   49  34  56 E6        30.24F
ATLANTA GA     CLOUDY    49  44  83 E8        30.13F HAZE
NEW ORLEANS LA CLOUDY    58  50  75 N10       30.04F
OKLAHOMA CITY  CLOUDY    48  42  80 S17       29.86F
ALBUQUERQUE NM PTSUNNY   43  28  55 NW7       30.03R
SALT LAKE CITY LGT RAIN  41  37  86 S14       29.97F
LOS ANGELES CA CLOUDY    60  52  74 E3        30.15F HAZE
BOISE ID       LGT RAIN  46  43  89 N9        29.92R
SEATTLE WA     CLOUDY    52  45  77 SW10G20   29.94R
$$

*** WEATHER ACROSS MANITOBA...SASKATCHEWAN AND ONTARIO ***
                ***ONTARIO***

CITY           SKY/WX    TMP DP  RH WIND       PRES   REMARKS
GERALDTON      CLOUDY    32  28  86 S12       29.93F FOG     WCI  23
THUNDER BAY    FLURRIES  34  30  86 S9        29.90F
SIOUX LOOKOUT  NOT AVBL
TORONTO        PTSUNNY   36  21  55 VRB3      30.27F
BIG TROUT LK   CLOUDY    28  27  93 S8        29.80F WCI  20
PICKLE LAKE    LGT SNOW  28  27  93 SE12      29.78F VSB 3/4 WCI  18
DRYDEN         FLURRIES  28  28 100 S9        29.71F WCI  20
KENORA         NOT AVBL
$$
                *** MANITOBA***

CITY           SKY/WX    TMP DP  RH WIND       PRES   REMARKS
BRANDON        FOG       27  27 100 SE6       29.52F VSB 1/8 WCI  20
DAUPHIN        CLOUDY    28  27  93 CALM      29.53F
ISLAND LAKE    DRIZZLE   28  27  93 SE6       29.67  WCI  22
PILOT MOUND      N/A     25  23  93 CALM        N/A
THE PAS        NOT AVBL
THOMPSON       NOT AVBL
WINNIPEG       FOG       28  28 100 S18G26    29.60F VSB 3/4 WCI  16
LYNN LAKE      FLURRIES  12  10  92 SE7       29.62S WCI   2
GILLAM         FRZ DRZL  23  19  86 S3        29.71S
$$
                ***SASKATCHEWAN***

CITY           SKY/WX    TMP DP  RH WIND       PRES   REMARKS
ESTEVAN        MOSUNNY   27  27 100 E9        29.37F WCI  17
KINDERSLEY     CLOUDY    23  19  86 NE7       29.27S WCI  15
LLOYDMINSTER   NOT AVBL
PRINCE ALBERT  NOT AVBL
REGINA         MOSUNNY   21  21 100 SE14      29.36F WCI   8
YORKTON        FOG       27  27 100 SE12      29.45F VSB 1   WCI  16
N. BATTLEFORD  CLOUDY    19  19 100 E14       29.38F WCI   6
LA RONGE       NOT AVBL
SASKATOON      PTSUNNY   23  21  93 E10       29.39F WCI  12
SWIFT CURRENT  CLOUDY    30  27  86 S13       29.23F WCI  20
$$
NOTE: THESE ARE AUTOMATED STATIONS WITH LIMITED QUALITY CONTROL
      "FAIR" INDICATES FEW OR NO CLOUDS BELOW 12,000 FEET WITH NO
      SIGNIFICANT WEATHER AND/OR OBSTRUCTIONS TO VISIBILITY.
      SKY/WX - SKY CONDITION AND SIGNIFICANT WEATHER.
      TMP - AIR TEMPERATURE.    DP   - DEWPOINT TEMPERATURE.
      RH  - RELATIVE HUMIDITY.  PRES - PRESSURE.
      HX  - HEAT INDEX.         WCI  - WIND CHILL INDEX.
$


USA.gov is the U.S. government's official web portal to all federal, state and local government web resources and services.